Regional Weather Roundup
Issued by NWS

Home | Current Version | Previous Version | Text Only | Print | Product List | Glossary Off
Versions: 1 2 3 4 5 6 7 8 9 10 11 12 13 14 15 16 17 18 19 20 21 22 23 24 25 26 27 28 29 30 31 32 33 34 35 36 37 38 39 40 41 42 43 44 45 46 47 48 49 50

000
ASUS43 KLOT 250003
RWRIL

ILLINOIS REGIONAL WEATHER ROUNDUP
NATIONAL WEATHER SERVICE CHICAGO/ROMEOVILLE IL
600 PM CST FRI NOV 24 2017

NOTE: "FAIR" INDICATES FEW OR NO CLOUDS BELOW 12,000 FEET WITH NO
SIGNIFICANT WEATHER AND/OR OBSTRUCTIONS TO VISIBILITY.

* THESE STATIONS ARE NOT UNDER NWS QUALITY CONTROL. THEY ALSO MAY NOT
  REPORT WEATHER SUCH AS PRECIPITATION OR FOG.

ILZ001-002-007-009-015-016-024-250100-
NORTHWEST ILLINOIS

CITY           SKY/WX    TMP DP  RH WIND       PRES   REMARKS
MOLINE         CLEAR     65  40  39 W21G30    29.49R
6HR MIN TEMP:  65; 6HR MAX TEMP:  72;

STERLING*        N/A    N/A N/A N/A MISG        N/A
SAVANNA*       CLEAR     61  41  46 W13G18    29.47R
$$

ILZ003-004-008-010-011-017-018-250100-
NORTH CENTRAL ILLINOIS

CITY           SKY/WX    TMP DP  RH WIND       PRES   REMARKS
ROCKFORD       PTCLDY    58  39  49 SW14G22   29.46R
6HR MIN TEMP:  50; 6HR MAX TEMP:  65;

ROCHELLE*      CLEAR     51  41  69 S14       29.47R
DE KALB*       CLEAR     53  41  63 SW14G23   29.47S
PERU*          CLEAR     57  38  49 SW17      29.50R
$$

ILZ005-006-012>014-019>023-250100-
NORTHEAST ILLINOIS

CITY           SKY/WX    TMP DP  RH WIND       PRES   REMARKS
CHICAGO-OHARE  PTCLDY    56  39  53 S16G24    29.48R
6HR MIN TEMP:  56; 6HR MAX TEMP:  63;

CHICAGO-MIDWAY NOT AVBL
AURORA         CLEAR     57  41  55 S16       29.48R
6HR MIN TEMP:  57; 6HR MAX TEMP:  63;

LANSING*       CLEAR     52  40  64 S15G24    29.53R
JOLIET*        CLEAR     57  41  55 S14G21    29.51R
WAUKEGAN       CLEAR     58  40  51 SW24G31   29.43S
6HR MIN TEMP:  58; 6HR MAX TEMP:  63;

DUPAGE AIRPORT CLEAR     54  41  61 S13       29.48R
6HR MIN TEMP:  54; 6HR MAX TEMP:  62;

KANKAKEE*      PTCLDY    52  37  58 S17G25    29.54R
WHEELING       CLEAR     58  41  53 S15G23    29.48R
6HR MIN TEMP:  58; 6HR MAX TEMP:  64;

MORRIS*        PTCLDY    55  40  57 S14       29.50R
ROMEOVILLE*    CLEAR     55  41  57 SW20G26   29.50R
NORTHERLY ISL    N/A     56  37  49 S17         N/A
$$

LMZ740>746-250100-
SOUTHERN LAKE MICHIGAN

STATION/POSITION SKY/WX   TEMP    WIND        PRES    VSBY  WAVE
                          AIR SEA DIR/SP/G                  HT/PER
                          (F)     (DEG/KT/KT) (MB)    (MI)  (FT/S)
SOUTHERN BUOY              51 47  190/ 23/ 27  996.0          6/ 6
HARRISON CRIB              56     200/ 32/ 36   N/A
BURNHAM HARBOR             55     180/ 19/ 22   N/A
CALUMET HARBOR             55     180/ 14/ 23  998.2R
BURNS HARBOR               54     190/ 22/ 30  999.7R
MICHIGAN CITY              54     170/ 21/ 28   N/A
$$

ILZ025>027-034>036-040-047-049-050-058-095>099-250100-
WEST-CENTRAL ILLINOIS

CITY           SKY/WX    TMP DP  RH WIND       PRES   REMARKS
QUINCY         CLEAR     61  38  42 SW6       29.58R
GALESBURG*     CLEAR     56  41  58 SW8       29.53R
MACOMB*        CLEAR     61  39  44 SW10      29.56R
JACKSONVILLE*  PTCLDY    64  37  36 MISG      29.57R
PITTSFIELD*    PTCLDY    67  38  35 SW9       29.60R
$$

ILZ028>032-037-038-041>044-048-051>054-059>061-250100-
CENTRAL ILLINOIS

CITY           SKY/WX    TMP DP  RH WIND       PRES   REMARKS
PONTIAC        PTCLDY    55  42  60 S17G23    29.54R
BLOOMINGTON    PTCLDY    55  39  54 S23       29.56R
DECATUR        CLEAR     57  36  45 S23G31    29.58F
PEORIA         CLEAR     59  39  47 S12       29.54R
6HR MIN TEMP:  59; 6HR MAX TEMP:  67;

LACON*         CLEAR     60  39  46 SW13G20   29.51R
LINCOLN*       CLEAR     58  41  54 S9G16     29.57R
SPRINGFIELD    CLEAR     60  41  49 S18       29.57R
6HR MIN TEMP:  60; 6HR MAX TEMP:  68;

TAYLORVILLE    CLEAR     54  38  53 S15G23    29.59F
6HR MIN TEMP:  54; 6HR MAX TEMP:  64;

$$

ILZ033-039-045-046-055>057-062-063-250100-
EAST-CENTRAL ILLINOIS

CITY           SKY/WX    TMP DP  RH WIND       PRES   REMARKS
CHAMPAIGN      CLEAR     53  37  54 S23       29.59F
DANVILLE*      CLEAR     52  34  51 S22G29    29.58F
RANTOUL*       CLEAR     51  40  67 S15       29.59S
MATTOON        CLEAR     54  36  50 S15G23    29.63F
PARIS*         CLEAR     51  36  57 S17       29.65F
$$

ILZ079-100>102-250100-
SOUTHWEST ILLINOIS

CITY           SKY/WX    TMP DP  RH WIND       PRES   REMARKS
ALTON          PTCLDY    61  39  44 S14       29.63R
BELLEVILLE     MOCLDY    59  36  42 S13       29.65R
CAHOKIA*       PTCLDY    63  35  35 S10       29.64R
SPARTA*        CLEAR     57  37  46 S18G25    29.70S
$$

ILZ064>066-069>071-074>076-080>082-084>086-088>090-092>094-250100-
SOUTH-CENTRAL ILLINOIS

CITY           SKY/WX    TMP DP  RH WIND       PRES   REMARKS
CARBONDALE     CLEAR     56  37  49 S17       29.74F
6HR MIN TEMP:  56; 6HR MAX TEMP:  63;

CAIRO*         CLEAR     55  36  48 S9        29.80F
EFFINGHAM*     CLEAR     57  36  44 SE14G20   29.68S
MARION         PTCLDY    57  36  44 S16G25    29.75S
MT. VERNON     CLEAR     55  36  48 S15       29.71F
CENTRALIA*     CLEAR     58  38  48 S17G25    29.67F
SALEM*         CLEAR     58  35  41 S14       29.68S
METROPOLIS*    CLEAR     56  34  44 S7        29.82R
$$

ILZ067-068-072-073-078-083-087-091-250100-
SOUTHEAST ILLINOIS

CITY           SKY/WX    TMP DP  RH WIND       PRES   REMARKS
LAWRENCEVILLE  CLEAR     51  35  54 S14       29.73F
FLORA*         CLEAR     55  37  50 S14G21    29.70F
FAIRFIELD*     CLEAR     53  36  52 S3        29.72F
HARRISBURG*    CLEAR     56  36  45 S10       29.76S
ROBINSON*      CLEAR     52  35  52 S13       29.71F
CARMI*         CLEAR     48  36  63 S8        29.75S
$$

ABBREVIATIONS USED IN REMARKS
   TC - TEMPERATURE IN CELSIUS
  WCI - WIND CHILL INDEX
   HX - HEAT INDEX
  VSB - VISIBILITY
$$




USA.gov is the U.S. government's official web portal to all federal, state and local government web resources and services.